Vertical_Velocity
-2 1 0 0 -0 -1 -0 0 -0 -0 1 -0 -0 0 0 -2 -4 -5 -2 -4 -6 -1 -0 -2 -1 0 0 -1 2 5 1 -11 -13 -8 -14 -6 -9 8 -1 -3 -6 2 -1 13 -15
0 -2 -1 -1 -0 -0 -0 -0 0 1 0 -0 0 -1 -2 -2 -1 2 -4 -6 -4 -1 -2 -2 -1 -4 -2 -4 -2 2 -0 -5 -4 -3 -9 -1 -3 7 -2 -3 -10 7 26 10 1
-1 -2 -1 -0 -0 -0 -1 -0 -1 -1 -2 -3 -2 1 -3 -5 -8 -9 -6 -2 -0 -0 -0 1 -1 -2 -1 1 -4 1 -13 5 -3 -4 1 -2 -1 -8 -3 -15 -20 5 15 -19 -16
-2 0 -1 -3 -0 -1 0 -1 -0 -1 -2 -1 -1 -2 -4 -2 -5 -2 1 -1 -2 -4 -3 -5 -4 -1 -0 -4 5 -1 -3 -5 -10 6 4 -1 7 5 -0 -20 5 -12 79 33 -10
-2 -1 -1 -1 -2 -1 -1 0 0 0 0 -1 -3 -2 -2 -4 2 -3 -1 -1 -2 -1 -1 2 -2 1 -5 -4 1 -1 -9 7 -4 2 -4 -0 -10 -12 -30 -10 5 1 11 46 -15
-1 -2 -2 -2 -1 -3 -1 -1 -0 -1 -0 -0 -2 -3 0 -5 -2 2 -1 -1 1 -0 3 -1 0 3 -8 -6 -3 -1 -2 -0 5 -11 -0 1 -5 1 -39 19 -19 17 -8 1 0
-3 -1 -1 -2 -2 -2 -1 -1 -2 1 1 -0 -2 -3 -1 2 2 -1 2 0 -1 1 -2 -1 2 2 4 1 8 3 -2 2 -12 -11 -19 6 -5 -8 -56 32 9 -14 3 -26 46
-1 -2 -2 -0 -1 -0 -0 -0 0 1 -0 0 -2 1 7 -0 0 -1 -0 -1 -0 -4 -2 0 1 -3 -1 -2 -12 -0 10 9 -11 2 -22 25 -37 -5 -8 14 -17 -9 1 -3 86
1 1 -1 -1 1 -0 -2 1 0 0 0 0 -0 3 -2 1 -2 1 -1 0 -0 -5 -4 -3 4 -2 6 -3 -1 -6 -14 6 -6 18 -7 27 -13 -33 19 -9 -16 -18 9 16 68
-1 -2 1 -0 -1 -2 2 2 1 -1 3 3 1 0 1 -1 -2 -0 -3 -2 -2 -5 -4 -0 -6 -9 2 3 -13 -1 2 1 -7 -17 3 7 -38 1 4 -16 -18 -26 3 -34 75
-1 -0 -0 2 -1 -0 1 -1 -0 -6 -0 5 1 6 -1 1 -3 2 -1 1 -3 -1 -2 -6 -2 -9 -2 -3 -2 -7 7 0 -9 -18 21 2 7 -3 18 -7 -19 -2 -10 22 8
-2 -1 -1 -0 0 -1 -0 -2 2 4 -11 1 2 2 0 -0 -2 3 -2 -2 -1 -1 0 1 -15 7 -3 -2 9 6 -3 -21 -13 9 35 3 -8 -7 18 -8 -0 -13 -5 -22 25
-0 -3 -1 -2 0 -0 -1 -1 1 2 -2 -7 1 1 -0 -1 -1 -1 0 -4 -0 -1 5 0 6 -1 3 -2 1 -0 -11 4 -2 -9 -4 11 12 3 -15 17 -5 -18 -11 3 -10
-4 -2 -1 -2 -1 -2 -0 -0 2 3 -5 -1 0 -3 0 1 -2 -2 -2 -1 -2 -2 2 -3 6 1 1 5 17 1 -0 -0 2 24 14 14 3 2 9 -10 -5 0 -12 -16 -27
5 3 0 -2 -1 -0 -3 0 -1 -0 4 0 1 2 -1 -3 2 1 3 -3 -1 7 5 -14 -1 8 6 -7 28 -29 3 4 7 6 13 3 8 7 -0 -10 -25 -20 -13 4 -16
-1 0 1 0 2 2 -1 -1 2 -1 -6 -2 -2 -0 0 1 -1 -1 -1 0 4 -4 7 -12 9 -0 9 -3 9 2 4 -0 8 5 7 -1 4 -4 -22 -31 -12 4 -11 -2 21
-1 1 0 0 -3 -2 -1 0 -2 0 1 2 2 2 2 2 -2 -3 -1 -4 3 -1 1 -1 -1 -1 6 4 -4 10 3 2 7 7 2 5 1 -12 9 6 -7 -4 -11 -9 -5
-1 -2 1 2 -0 1 -1 2 0 3 1 2 1 0 0 3 -2 2 -1 -5 -4 6 -1 1 -11 -1 6 -0 4 6 -1 5 3 2 3 -5 -2 12 -5 3 -2 6 2 7 10
-1 1 -1 1 2 3 0 0 2 2 2 1 -2 -2 9 0 2 2 2 7 -1 3 -0 1 -2 -5 -4 2 7 2 12 -3 1 2 4 1 -0 -1 1 -1 4 -2 9 14 4
-1 -2 3 1 3 4 1 -2 -1 2 1 0 1 4 -0 3 3 1 -2 -1 -1 0 2 5 -4 -6 -0 -5 -7 2 1 5 1 1 -1 -2 1 13 -2 -6 24 -21 -9 -5 0
1 -4 3 3 -0 3 1 -0 0 1 -1 -1 0 -1 2 1 2 3 -2 1 2 -2 -3 0 9 -13 3 5 4 7 4 -2 -1 -2 4 1 10 1 -6 -6 -6 5 21 2 4
-1 -6 -3 1 0 -1 1 1 -1 1 1 0 -3 1 1 1 -3 3 2 2 2 -0 -0 1 1 -3 -24 12 -1 -0 -7 3 8 1 -0 1 6 1 4 -3 -2 -0 -0 3 -4
-1 -2 -1 -4 -0 2 -1 -2 -1 -1 1 1 -0 1 -0 1 1 6 0 -0 2 -0 -4 -8 6 -2 -1 2 -3 -2 4 -2 4 2 -4 5 5 -1 -1 11 7 2 2 -15 5
6 -6 -7 1 0 -1 2 -6 0 -2 -4 1 -2 3 5 -1 4 -3 -3 -1 1 4 -2 3 -4 -2 -1 7 7 0 2 4 5 8 -3 -9 7 1 3 -0 -4 8 11 8 3
-4 3 -5 -6 -0 2 -1 -4 -2 7 1 -1 -9 5 5 -7 5 -6 4 3 1 -6 0 2 -2 2 -4 -1 2 -0 -2 -5 3 -3 11 -9 0 5 9 -2 3 6 8 9 8
6 6 -6 4 11 5 0 -7 -1 4 6 -0 -5 4 -1 -7 14 -7 7 7 0 0 2 -1 -2 0 -8 -7 -3 -5 1 -1 -2 -3 -2 1 -11 2 1 2 -0 8 6 3 6
3 4 14 -0 2 4 -7 -4 3 4 -6 5 3 3 -4 -1 4 1 3 -1 -4 0 7 6 4 -0 -11 2 1 -2 -18 -8 -1 -2 4 -2 -4 6 -5 7 -3 -10 3 3 9
Height
3111 3109 3106 3103 3101 3099 3096 3094 3092 3090 3087 3086 3083 3081 3080 3077 3075 3073 3070 3069 3066 3064 3063 3062 3061 3059 3059 3059 3059 3060 3058 3049 3049 3052 3046 3063 3063 3065 3063 3066 3075 3078 3086 3093 3090
3110 3107 3105 3102 3099 3096 3093 3091 3089 3088 3086 3084 3082 3080 3078 3075 3073 3070 3068 3064 3061 3058 3057 3056 3055 3054 3054 3054 3053 3053 3051 3045 3050 3049 3048 3053 3054 3054 3056 3058 3060 3070 3077 3081 3080
3109 3106 3103 3099 3097 3094 3091 3088 3086 3083 3082 3080 3078 3076 3073 3069 3065 3061 3058 3055 3054 3052 3051 3050 3049 3048 3048 3049 3049 3048 3040 3044 3044 3043 3043 3042 3040 3045 3046 3045 3051 3058 3074 3075 3075
3107 3103 3101 3097 3094 3090 3088 3085 3082 3079 3077 3075 3072 3069 3065 3061 3060 3054 3051 3049 3048 3047 3045 3044 3044 3043 3042 3042 3043 3041 3038 3036 3035 3036 3036 3033 3036 3033 3036 3034 3042 3047 3051 3066 3071
3103 3100 3097 3094 3090 3087 3084 3081 3077 3075 3072 3069 3066 3063 3061 3057 3054 3050 3047 3044 3043 3041 3040 3039 3038 3036 3034 3035 3035 3033 3029 3030 3028 3028 3027 3024 3023 3023 3023 3029 3033 3035 3037 3041 3059
3099 3096 3092 3089 3086 3083 3079 3075 3073 3070 3067 3064 3062 3059 3056 3054 3050 3047 3044 3040 3037 3036 3034 3033 3032 3032 3027 3025 3026 3025 3024 3020 3020 3019 3020 3017 3015 3017 3012 3019 3018 3021 3029 3029 3049
3095 3092 3088 3084 3081 3077 3074 3071 3067 3065 3063 3060 3058 3055 3052 3052 3048 3044 3039 3035 3033 3031 3030 3030 3029 3027 3024 3021 3020 3018 3015 3012 3010 3009 3009 3013 3004 3002 3006 3012 3003 3007 3017 3022 3040
3091 3088 3084 3080 3077 3073 3070 3067 3063 3060 3057 3055 3053 3050 3047 3046 3043 3041 3036 3032 3030 3027 3027 3025 3023 3022 3021 3018 3016 3014 3012 3004 2997 3002 3000 3006 2992 2998 2999 3001 3000 2998 3003 3008 3031
3087 3082 3078 3075 3072 3068 3065 3063 3059 3056 3053 3051 3048 3045 3043 3042 3041 3037 3033 3029 3027 3025 3022 3021 3019 3016 3014 3014 3011 3007 3002 2999 2993 2994 2994 2993 2989 2987 2989 2986 2992 2995 3000 3000 3012
3082 3077 3073 3069 3066 3063 3060 3057 3054 3052 3049 3046 3043 3044 3041 3039 3036 3033 3030 3027 3025 3021 3020 3018 3015 3009 3009 3012 3004 3002 2997 2992 2987 2987 2985 2981 2979 2979 2980 2973 2978 2987 2990 2992 3001
3077 3071 3067 3063 3060 3058 3057 3054 3053 3049 3044 3043 3040 3038 3036 3036 3034 3031 3028 3025 3023 3019 3016 3013 3009 3001 3006 3000 2998 2998 2993 2986 2978 2977 2970 2970 2971 2973 2980 2978 2978 2984 2990 2990 3000
3072 3068 3063 3058 3055 3054 3053 3051 3048 3045 3040 3037 3034 3033 3032 3032 3029 3028 3026 3024 3020 3016 3014 3013 3001 2999 2997 2997 2994 2992 2988 2974 2969 2972 2967 2965 2965 2969 2969 2973 2976 2978 2978 2982 2985
3070 3065 3060 3056 3053 3051 3049 3048 3046 3042 3037 3030 3028 3028 3030 3030 3027 3026 3024 3021 3017 3013 3012 3006 2998 2994 2990 2986 2986 2984 2978 2968 2972 2964 2957 2958 2952 2963 2961 2965 2972 2976 2976 2981 2985
3067 3063 3058 3055 3054 3049 3047 3045 3043 3039 3035 3029 3026 3027 3027 3027 3024 3023 3020 3020 3015 3011 3010 3003 2996 2990 2988 2982 2978 2976 2972 2968 2965 2963 2951 2953 2948 2950 2960 2961 2964 2967 2971 2975 2981
3063 3060 3056 3052 3050 3048 3047 3044 3042 3040 3036 3029 3026 3025 3025 3026 3024 3020 3018 3014 3012 3010 3008 2998 2994 2989 2984 2979 2969 2967 2967 2969 2963 2958 2958 2955 2952 2949 2950 2955 2962 2963 2967 2974 2977
3060 3055 3052 3049 3046 3044 3042 3041 3040 3040 3031 3025 3024 3023 3022 3020 3019 3017 3015 3012 3009 3003 3000 2994 2992 2986 2981 2976 2972 2967 2965 2964 2962 2960 2954 2949 2950 2941 2946 2948 2950 2954 2961 2968 2972
3055 3052 3047 3044 3042 3040 3039 3039 3040 3035 3029 3026 3022 3021 3019 3017 3015 3013 3011 3009 3008 3003 2997 2993 2986 2983 2980 2976 2972 2967 2965 2961 2958 2955 2947 2952 2954 2945 2940 2937 2932 2940 2953 2965 2973
3051 3048 3044 3041 3038 3036 3036 3038 3035 3028 3026 3024 3022 3018 3016 3014 3012 3009 3008 3005 3003 3002 2998 2993 2986 2982 2981 2978 2972 2970 2968 2964 2957 2950 2948 2952 2946 2941 2936 2924 2927 2940 2952 2965 2975
3046 3043 3040 3036 3034 3033 3035 3034 3030 3026 3024 3022 3020 3015 3014 3011 3011 3008 3005 3003 3000 3000 3000 2994 2986 2981 2978 2977 2975 2970 2968 2966 2962 2954 2948 2944 2943 2941 2938 2932 2939 2946 2951 2965 2973
3043 3040 3037 3034 3032 3032 3031 3029 3027 3026 3023 3021 3019 3016 3013 3011 3010 3007 3004 3001 2999 2998 2996 2992 2983 2980 2976 2974 2972 2970 2968 2966 2962 2956 2948 2939 2942 2942 2944 2945 2946 2949 2959 2968 2974
3040 3037 3035 3032 3031 3030 3027 3025 3023 3022 3021 3020 3017 3014 3012 3009 3007 3005 3002 2999 2996 2995 2993 2990 2985 2979 2976 2973 2972 2971 2968 2966 2965 2963 2957 2948 2943 2947 2946 2946 2948 2952 2957 2964 2972
3037 3036 3034 3031 3031 3027 3025 3023 3022 3020 3019 3016 3013 3011 3008 3006 3003 3001 2998 2997 2994 2993 2990 2987 2981 2973 2972 2970 2967 2968 2967 2966 2963 2964 2961 2958 2953 2947 2944 2944 2949 2953 2957 2961 2969
3035 3033 3030 3029 3027 3025 3023 3022 3019 3017 3015 3013 3011 3009 3006 3003 3001 2996 2993 2991 2991 2990 2988 2987 2980 2972 2963 2965 2964 2964 2965 2964 2964 2963 2962 2961 2957 2954 2949 2945 2947 2951 2956 2960 2966
3032 3029 3027 3025 3022 3022 3020 3018 3015 3013 3010 3009 3007 3004 3000 2997 2996 2990 2989 2988 2986 2985 2983 2982 2978 2977 2970 2966 2966 2964 2962 2963 2963 2961 2958 2959 2957 2956 2953 2950 2949 2950 2954 2957 2962
3029 3024 3023 3020 3018 3017 3016 3015 3012 3009 3006 3004 3001 3000 2997 2993 2990 2988 2986 2984 2982 2979 2978 2977 2971 2971 2966 2964 2962 2959 2957 2958 2959 2959 2958 2958 2956 2957 2956 2955 2956 2954 2953 2956 2961
3024 3022 3017 3014 3012 3010 3010 3007 3007 3004 3001 2998 2995 2995 2993 2989 2988 2984 2983 2981 2978 2975 2972 2970 2965 2964 2960 2958 2955 2950 2949 2949 2949 2951 2953 2955 2951 2954 2954 2952 2954 2954 2955 2955 2956
3016 3016 3012 3009 3006 3006 3002 3001 2998 2997 2993 2992 2989 2987 2985 2982 2979 2977 2975 2973 2971 2969 2966 2965 2962 2960 2953 2954 2950 2944 2939 2936 2937 2942 2945 2945 2947 2952 2952 2951 2952 2954 2954 2953 2954